Palo Alto, CA

3:23 PM PDT on August 23, 2016 (GMT -0700)
Palo Alto Of Santa Clara County | | Change Station

Elev 7 ft 37.46 °N, 122.12 °W | Updated 22 hours ago

Clear
Clear
72 °F
Feels Like 72 °F
N
11
Wind Variable Wind from NNW
Gusts mph

Today
High -- | Low -- °F
--% Chance of Precip.
Yesterday
High -- | Low -- °F
Precip. -- in
Pressure 29.93 in
Visibility 10.0 miles
Clouds Clear
Dew Point 56 °F
Humidity 58%
Rainfall 0.00 in
Snow Depth Not available.
6:31 AM 7:49 PM
Waning Gibbous, 64% visible
METAR KPAO 222347Z 34015KT 10SM SKC 21/15 A2993
Pressure 29.93 in
Visibility 10.0 miles
Clouds Clear
Dew Point 56 °F
Humidity 58%
Rainfall 0.00 in
Snow Depth Not available.
6:31 AM 7:49 PM
Waning Gibbous, 64% visible
METAR KPAO 222347Z 34015KT 10SM SKC 21/15 A2993

10-Day Weather Forecast

Almanac

Astronomy

Aug. 23, 2016 Rise Set
Actual Time
Civil Twilight
Nautical Twilight
Astronomical Twilight
Moon
Length of Visible Light
Length of Day
Tomorrow will be .
, % of the Moon is Illuminated

Today's Extremes

State Highs State Lows

Community

WunderPhotos

Upload Photos

1,934,476 photos uploaded!

WunderBlog® & News

Nearby

Air Quality

  Air Quality AQ Index Pollutant
Not available.

Snow Depth

Station Depth Elevation

Earthquake Activity

City Distance Mag. Time & Date
Minimum magnitude displayed is 2.5.

Coastal Water Temperatures

Place Temperature

Stations

Nearby Weather Stations

Station Location Temp. Windchill Dew Point Humidity Wind Precip. Elev Updated Type
                   

Watches & Warnings

There are currently no watches in effect.